This demonstration page uses our WeatherBlox Daily Observations layout. Learn more.

Left ArrowRight Arrow

Hourly Observations for May 23, 2022

Temp ( °F °C ) Dew Point ( °F °C ) Humidity (%) Winds ( mph kmh ) Pressure ( in mb ) Visibility ( mi km ) Precip ( " mm )
12:15 am 00:15 Clear 52 11 39 4 62 62 NNE 7 11 30.35 1028 10 16 N/A
12:35 am 00:35 Clear 52 11 39 4 62 62 NNE 7 11 30.35 1028 10 16 N/A
12:55 am 00:55 Clear 50 10 41 5 71 71 NNE 7 11 30.35 1028 10 16 N/A
1:15 am 01:15 Clear 50 10 41 5 71 71 NNE 6 9 30.35 1028 10 16 N/A
1:35 am 01:35 Clear 48 9 39 4 71 71 NNE 8 13 30.34 1028 10 16 N/A
1:55 am 01:55 Clear 50 10 39 4 67 67 NNE 7 11 30.34 1027 10 16 N/A
2:15 am 02:15 Clear 50 10 39 4 67 67 NNE 7 11 30.33 1027 10 16 N/A
2:35 am 02:35 Clear 50 10 39 4 67 67 NE 5 7 30.33 1027 10 16 N/A
2:55 am 02:55 Clear 48 9 39 4 71 71 NE 6 9 30.33 1027 10 16 N/A
3:15 am 03:15 Clear 48 9 39 4 71 71 NNE 6 9 30.32 1027 10 16 N/A
3:35 am 03:35 Clear 48 9 39 4 71 71 NNE 6 9 30.31 1027 10 16 N/A
3:55 am 03:55 Clear 48 9 39 4 71 71 NE 6 9 30.31 1027 10 16 N/A
4:15 am 04:15 Clear 48 9 37 3 66 66 NNE 6 9 30.31 1027 10 16 N/A
4:35 am 04:35 Clear 48 9 37 3 66 66 NNE 8 13 30.31 1027 10 16 N/A
4:55 am 04:55 Clear 48 9 37 3 66 66 NNE 6 9 30.32 1027 10 16 N/A
5:15 am 05:15 Clear 46 8 37 3 71 71 NNE 7 11 30.32 1027 10 16 N/A
5:35 am 05:35 Clear 48 9 37 3 66 66 NNE 7 11 30.31 1027 10 16 N/A
5:55 am 05:55 Clear 48 9 37 3 66 66 NNE 7 11 30.31 1027 10 16 N/A
6:15 am 06:15 Clear 46 8 37 3 71 71 NNE 7 11 30.33 1027 10 16 N/A
6:35 am 06:35 Sunny 46 8 37 3 71 71 NNE 5 7 30.33 1027 10 16 N/A
6:55 am 06:55 Sunny 46 8 37 3 71 71 NNE 7 11 30.34 1027 10 16 N/A
7:15 am 07:15 Sunny 46 8 37 3 71 71 NNE 7 11 30.35 1028 10 16 N/A
7:35 am 07:35 Sunny 48 9 37 3 66 66 NNE 8 13 30.34 1028 10 16 N/A
7:55 am 07:55 Sunny 50 10 37 3 62 62 NNE 9 15 30.34 1027 10 16 N/A
8:15 am 08:15 Sunny 50 10 37 3 62 62 NE 10 17 30.34 1027 10 16 N/A
8:35 am 08:35 Sunny 52 11 39 4 62 62 NE 9 15 30.34 1027 10 16 N/A
8:55 am 08:55 Sunny 52 11 39 4 62 62 NNE 13 20 30.34 1027 10 16 N/A
9:15 am 09:15 Sunny 52 11 39 4 62 62 NNE 10 17 30.34 1027 10 16 N/A
9:35 am 09:35 Sunny 54 12 39 4 58 58 NE 13 20 30.33 1027 10 16 N/A
9:55 am 09:55 Sunny 54 12 41 5 63 63 NNE 10 17 30.33 1027 10 16 N/A
10:15 am 10:15 Sunny 55 13 39 4 55 55 NE 13 20 30.33 1027 10 16 N/A
10:35 am 10:35 Sunny 57 14 39 4 51 51 NE 10 17 30.32 1027 10 16 N/A
10:55 am 10:55 Sunny 57 14 39 4 51 51 ENE 14 22 30.32 1027 10 16 N/A
11:15 am 11:15 Sunny 57 14 39 4 51 51 NNE 14 22 30.31 1026 10 16 N/A
11:35 am 11:35 Sunny 57 14 41 5 55 55 NE 14 22 30.30 1026 10 16 N/A
11:55 am 11:55 Sunny 59 15 41 5 51 51 NE 13 20 30.28 1026 10 16 N/A
12:15 pm 12:15 Sunny 59 15 39 4 48 48 NNE 12 19 30.28 1026 10 16 N/A
12:35 pm 12:35 Sunny 59 15 39 4 48 48 NNE 12 19 30.27 1025 10 16 N/A
12:55 pm 12:55 Sunny 61 16 41 5 48 48 NNE 14 22 30.27 1025 10 16 N/A
1:15 pm 13:15 Sunny 61 16 41 5 48 48 N 12 19 30.26 1025 10 16 N/A
1:35 pm 13:35 Sunny 63 17 43 6 49 49 NE 12 19 30.26 1025 10 16 N/A
1:55 pm 13:55 Sunny 63 17 41 5 45 45 NE 12 19 30.24 1024 10 16 N/A
2:15 pm 14:15 Sunny 63 17 41 5 45 45 NNE 13 20 30.23 1024 10 16 N/A
2:35 pm 14:35 Sunny 64 18 43 6 46 46 NNE 9 15 30.22 1024 10 16 N/A
2:55 pm 14:55 Sunny 64 18 43 6 46 46 NE 8 13 30.21 1023 10 16 N/A
3:15 pm 15:15 Sunny 64 18 45 7 49 49 ENE 10 17 30.21 1023 10 16 N/A
3:35 pm 15:35 Sunny 66 19 45 7 46 46 NE 12 19 30.20 1023 10 16 N/A
3:55 pm 15:55 Sunny 66 19 45 7 46 46 E 10 17 30.19 1022 10 16 N/A
4:15 pm 16:15 Sunny 66 19 43 6 43 43 ENE 9 15 30.19 1022 10 16 N/A
4:35 pm 16:35 Sunny 66 19 43 6 43 43 NE 8 13 30.18 1022 10 16 N/A
4:55 pm 16:55 Sunny 66 19 45 7 46 46 NE 7 11 30.18 1022 10 16 N/A
5:15 pm 17:15 Sunny 66 19 45 7 46 46 ENE 13 20 30.17 1022 10 16 N/A
5:35 pm 17:35 Sunny 66 19 45 7 46 46 ENE 7 11 30.17 1022 10 16 N/A
5:57 pm 17:57 Sunny 66 19 45 7 46 46 E 7 11 30.17 1022 10 16 N/A
6:15 pm 18:15 Sunny 66 19 45 7 46 46 E 7 11 30.17 1022 10 16 N/A
6:35 pm 18:35 Sunny 66 19 46 8 49 49 ENE 9 15 30.17 1022 10 16 N/A
6:55 pm 18:55 Sunny 66 19 46 8 49 49 ENE 9 15 30.16 1021 10 16 N/A
7:15 pm 19:15 Sunny 66 19 45 7 46 46 NE 7 11 30.16 1021 10 16 N/A
7:35 pm 19:35 Sunny 64 18 46 8 52 52 ENE 5 7 30.17 1022 10 16 N/A
7:55 pm 19:55 Sunny 64 18 45 7 49 49 E 9 15 30.17 1022 10 16 N/A
8:15 pm 20:15 Sunny 64 18 45 7 49 49 E 6 9 30.18 1022 10 16 N/A
8:35 pm 20:35 Sunny 63 17 46 8 56 56 E 6 9 30.19 1022 10 16 N/A
8:55 pm 20:55 Sunny 59 15 48 9 68 68 E 5 7 30.19 1022 10 16 N/A
9:15 pm 21:15 Clear 59 15 48 9 68 68 Calm 30.19 1022 10 16 N/A
9:35 pm 21:35 Clear 57 14 48 9 72 72 ENE 3 6 30.20 1023 10 16 N/A
9:55 pm 21:55 Clear 55 13 50 10 82 82 ENE 5 7 30.19 1022 10 16 N/A
10:15 pm 22:15 Clear 55 13 48 9 77 77 Calm 30.20 1023 10 16 N/A
10:35 pm 22:35 Clear 52 11 48 9 88 88 ENE 6 9 30.21 1023 10 16 N/A
10:55 pm 22:55 Clear 55 13 48 9 77 77 ENE 9 15 30.20 1023 10 16 N/A
11:15 pm 23:15 Clear 55 13 50 10 82 82 ENE 10 17 30.19 1022 10 16 N/A
11:35 pm 23:35 Clear 55 13 50 10 82 82 ENE 9 15 30.19 1022 10 16 N/A
11:55 pm 23:55 Clear 55 13 50 10 82 82 ENE 10 17 30.19 1022 10 16 N/A

Powered by AerisWeather